Location: Oxnard Community Center
(34.1947°N, 119.1812°W)
Time: 14:45:12
(UTC+00:00)

H-2A R/B - Pass Details

Date: 17 July 2025
Orbit: 728 x 830 km, 98.3° (Epoch: 15 December)

Event Time Altitude Azimuth Distance (km) Brightness Sun altitude
Rises 12:27:48 0° 354° (N) 3,164 5.5 -6.3°
Reaches altitude 10° 12:30:39 10° 337° (NNW) 2,232 4.5 -5.8°
Maximum altitude 12:34:03 19° 293° (WNW) 1,678 3.5 -5.1°
Drops below altitude 10° 12:37:27 10° 248° (WSW) 2,222 3.7 -4.5°
Enters shadow 12:38:52 - 238° (WSW) 2,658 4.1 -4.3°
